459P/Catalina (2017)

Japanese version
Home page
Updated on April 22, 2023

---------------------------------------------------------------------

* Profile

* Orbital Elements

                    Epoch = 2017 Jan.  7.0 TT
     T = 2017 Jan. 25.98656 TT        Peri. = 189.51405
     e = 0.5189852                    Node  = 272.42272 2000.0
     q = 1.6111068 AU                 Incl. =  13.56249
       a =  3.3493915 AU   n = 0.16078858   P =   6.13 years

* Magnitudes Graph

        H = 16.0  G = 0.15

---------------------------------------------------------------------

The orbital elements are printed on CBET 5241.
The magnitudes graphs are made with Comet for Windows.

---------------------------------------------------------------------

Copyright(C) Seiichi Yoshida (comet@aerith.net). All rights reserved.